Regional Weather Roundup
Issued by NWS

Home | Current Version | Previous Version | Graphics & Text | Print | Product List | Glossary On
Versions: 1 2 3 4 5 6 7 8 9 10 11 12 13 14 15 16 17 18 19 20 21 22 23 24 25 26 27 28 29 30 31 32 33 34 35 36 37 38 39 40 41 42 43 44 45 46 47 48 49 50
364
ASUS43 KMPX 060601
RWRMN
WEATHER ROUNDUP FOR MINNESOTA
NATIONAL WEATHER SERVICE TWIN CITIES/CHANHASSEN MN
100 AM CDT FRI MAY 06 2016


NOTE: "FAIR" INDICATES FEW OR NO CLOUDS BELOW 12,000 FEET WITH NO
SIGNIFICANT WEATHER AND/OR OBSTRUCTIONS TO VISIBILITY. N/A MEANS
CURRENT SKY AND/OR WEATHER CONDITIONS ARE NOT AVAILABLE.

MNZ060>063-068>070-060700-
   Twin Cities Metro

CITY           SKY/WX    TMP DP  RH WIND       PRES   REMARKS
TWIN CITIES    CLEAR     66  41  40 SW8       29.87F
6HR MIN TEMP:  66; 6HR MAX TEMP:  78;

ST PAUL        CLEAR     56  45  66 CALM      29.87F
CRYSTAL        CLEAR     70  42  36 SW8       29.85F
BLAINE         CLEAR     70  43  37 SW7       29.86S
EDEN PRAIRIE   CLEAR     64  41  42 SW9       29.87S
6HR MIN TEMP:  64; 6HR MAX TEMP:  78;

SOUTH ST PAUL  CLEAR     61  41  47 CALM      29.87S
LAKE ELMO      FAIR      55  43  62 SW5       29.87F
$$
MNZ001>005-007-008-013>017-022>024-027-028-060700-
   Northwest Minnesota

CITY           SKY/WX    TMP DP  RH WIND       PRES   REMARKS
BEMIDJI        PTCLDY    69  40  33 SW8       29.78S
HALLOCK        CLEAR     70  34  26 SW12      29.66F
ROSEAU         PTCLDY    70  39  32 SW10      29.68S
WARROAD        PTCLDY    72  43  35 SW8       29.68S
THIEF RVR FALL CLEAR     70  37  30 S14       29.74S
CROOKSTON      CLEAR     68  39  34 SW13      29.73S
FOSSTON        PTCLDY    57  39  51 S8        29.78S
DETROIT LAKES  PTCLDY    70  41  35 SW12G17   29.82S
MOORHEAD       CLEAR     66  41  39 S7        29.79S
PARK RAPIDS    CLEAR     68  39  34 SW9       29.81S
MAHNOMEN       FAIR      61  41  47 S10       29.79R
$$
MNZ006-009>011-018-025>026-060700-
   North Central Minnesota

CITY           SKY/WX    TMP DP  RH WIND       PRES   REMARKS
BAUDETTE       CLEAR     63  39  41 SW6       29.68F
FLAG ISLAND    CLEAR     72  39  30 SW12      29.64S
INTL FALLS     CLEAR     60  43  53 SW6       29.70S
6HR MIN TEMP:  55; 6HR MAX TEMP:  86;

WASKISH        CLEAR     70  39  32 S8        29.74R
BIG FORK       CLEAR     64  39  39 SW8       29.76R
LONGVILLE      CLEAR     66  41  39 SW7       29.80F
GRAND RAPIDS   CLEAR     72  39  30 W9        29.80S
CRANE LAKE     PTCLDY    48  45  87 CALM      29.73S
ORR            CLEAR     64  39  39 CALM      29.72F
COOK           CLEAR     66  43  42 SW3       29.75S
WALKER         FAIR      72  39  30 SW12G18   29.78F
$$
MNZ012-019>021-037-060700-
   Northeast Minnesota

CITY           SKY/WX    TMP DP  RH WIND       PRES   REMARKS
DULUTH         CLEAR     61  42  49 W10       29.78F
6HR MIN TEMP:  61; 6HR MAX TEMP:  77;

ELY            PTCLDY    64  43  45 SW6       29.75S
HIBBING        CLEAR     49  43  80 CALM      29.77S
EVELETH        CLEAR     59  41  51 W3        29.78S
DULUTH HARBOR  CLEAR     57  43  58 N8        29.78R
TWO HARBORS    CLEAR     52  45  76 CALM      29.76S
SILVER BAY     CLEAR     46  37  71 CALM      29.76F
GRAND MARAIS     N/A     45  37  73 CALM      29.76F
G MARAIS ARPRT CLEAR     45  34  65 CALM      29.78F
$$
MNZ029>031-032-039>041-046>048-054>057-064-060700-
   West Central Minnesota

CITY           SKY/WX    TMP DP  RH WIND       PRES   REMARKS
FERGUS FALLS   CLEAR     63  45  51 S8        29.80S
WHEATON        CLEAR     66  45  45 S13       29.85S
MORRIS         CLEAR     59  43  55 S10       29.85S
ALEXANDRIA     CLEAR     64  43  46 SW12      29.87F
ELBOW LAKE     FAIR      60  44  55 S10       29.85S
WADENA         CLEAR     66  43  42 SW6       29.83S
GLENWOOD       CLEAR     57  45  62 SW8       29.89S
APPLETON       CLEAR     64  45  48 S9        29.86S
BENSON         CLEAR     59  43  55 SW8       29.87F
ORTONVILLE     CLEAR     61  45  55 S5        29.86S
MADISON        CLEAR     55  43  62 S6        29.88S
WILLMAR        FAIR      66  45  45 CALM      29.90S
$$
MNZ033>034-036-042>043-049>051-058-059-060700-
   Central Minnesota

CITY           SKY/WX    TMP DP  RH WIND       PRES   REMARKS
ST CLOUD       CLEAR     65  44  46 SW7       29.85F
6HR MIN TEMP:  65; 6HR MAX TEMP:  80;

SAUK CENTRE      N/A     62  45  53 SW10      29.87F
PAYNESVILLE    CLEAR     65  43  44 W10       29.88F
AITKIN         CLEAR     70  37  30 SW6       29.80S
PINE RIVER     CLEAR     70  45  40 SW6       29.85S
BRAINERD       CLEAR     62  42  47 SW6       29.83S
STAPLES        CLEAR     68  37  32 SW12G17   29.83S
LONG PRAIRIE   FAIR      61  43  51 S6        29.87F
LITTLE FALLS   CLEAR     66  41  39 SW3       29.85S
LITCHFIELD     CLEAR     66  43  42 SW6       29.89S
BUFFALO        CLEAR     65  43  44 SW6       29.88S
MAPLE LAKE     CLEAR     66  46  48 SW6       29.88S
HUTCHINSON     CLEAR     66  45  46 SW7       29.90F
$$
MNZ037-044-045-052-053-060700-
   East Central Minnesota

CITY           SKY/WX    TMP DP  RH WIND       PRES   REMARKS
PRINCETON      CLEAR     66  45  45 SW5       29.85S
MORA           CLEAR     61  41  48 SW3       29.85S
CAMBRIDGE      PTCLDY    72  50  46 SW5       29.82F
RUSH CITY      PTCLDY    64  44  47 SW7       29.83F
MOOSE LAKE     PTCLDY    61  39  44 SW6       29.78F
HINCKLEY       CLOUDY    54  43  66 CALM      29.82S
CLOQUET        CLEAR     68  37  32 SW10      29.79S
MCGREGOR       CLEAR     63  45  51 SW3       29.81S
$$
MNZ071>073-080-081-089-090-097-098-060700-
   Southwest Minnesota

CITY           SKY/WX    TMP DP  RH WIND       PRES   REMARKS
MONTEVIDEO     CLEAR     61  45  55 SW8       29.90F
GRANITE FALLS  CLEAR     57  43  59 S9        29.91S
CANBY          CLEAR     69  44  39 SW13G20   29.88S
MARSHALL       CLEAR     63  43  48 SW16      29.89F
REDWOOD FALLS  CLEAR     60  41  49 SW10      29.90F
OLIVIA         CLEAR     57  39  51 S6        29.90S
PIPESTONE      CLEAR     57  45  62 SW9       29.94S
WINDOM         CLEAR     61  43  51 CALM      29.94S
WORTHINGTON    CLEAR     62  42  47 S17       29.95S
JACKSON        CLEAR     61  37  41 SW8       29.96R
TRACY          CLEAR     63  43  48 SW17G23   29.92S
SLAYTON        CLEAR     60  41  50 SW12      29.94S
$$
MNZ065>067-074>077-082>085-091>093-060700-
   South Central Minnesota

CITY           SKY/WX    TMP DP  RH WIND       PRES   REMARKS
MANKATO        CLEAR     63  39  42 SW7       29.92S
ST JAMES       CLEAR     54  39  58 S5        29.94F
FAIRMONT       CLEAR     61  39  44 SW8       29.94S
GLENCOE        CLEAR     66  45  47 SW8       29.89S
FARIBAULT      CLEAR     61  43  51 S5        29.92S
OWATONNA         N/A     61  39  44 SW8       29.93S
WASECA         CLEAR     55  41  58 SW8       29.94S
ALBERT LEA     CLEAR     64  37  36 SW7       29.94S
$$
MNZ078>079-086>088-094>096-060700-
   Southeast Minnesota

CITY           SKY/WX    TMP DP  RH WIND       PRES   REMARKS
ROCHESTER      CLEAR     60  40  47 SW14      29.93F
6HR MIN TEMP:  53; 6HR MAX TEMP:  72;

RED WING       CLEAR     52  43  71 CALM      29.87F
STANTON        CLEAR     61  40  46 S6        29.88F
DODGE CENTER   CLEAR     55  39  54 SW10      29.93S
WINONA         CLEAR     54  46  76 CALM      29.91F
AUSTIN         CLEAR     54  39  58 S3        29.94S
PRESTON        CLEAR     55  36  47 SW12      29.93F
$$
ABBREVIATIONS USED IN REMARKS
   TC - TEMPERATURES IN CELSIUS
  WCI - WIND CHILL INDEX
   HX - HEAT INDEX
  VSB - VISIBILITY
$$




USA.gov is the U.S. government's official web portal to all federal, state and local government web resources and services.